Theta_e
347 354 364 364 363 363 360 357 357 357 357 359 358 358 360 361 363 363 362 363 363 361 359 358 358 358 355 352 352 354 355 355 354 352 351 349 351 351 350 349 347 342 346
348 354 363 364 363 362 360 357 357 357 358 358 357 357 358 360 359 360 360 361 361 358 358 357 356 355 354 355 354 350 350 351 352 353 352 351 349 349 350 351 347 342 346
350 354 360 364 362 361 359 358 357 358 357 356 356 357 357 357 357 357 359 359 357 357 357 357 356 355 354 353 353 354 355 355 353 352 352 349 349 353 351 351 352 348 347
350 350 355 363 363 361 359 359 359 358 357 356 355 355 356 356 356 355 356 356 355 356 357 356 355 355 356 355 355 354 354 355 355 356 351 351 350 353 356 354 353 352 349
346 348 353 360 361 360 359 359 359 359 358 356 356 355 355 355 356 356 356 355 355 356 356 357 357 357 357 357 358 358 357 356 355 353 346 345 345 349 354 360 355 353 351
344 347 356 359 360 358 358 358 359 359 358 357 356 355 356 355 356 356 355 354 354 354 354 354 355 356 356 357 359 359 358 357 357 348 346 345 344 348 351 357 360 357 355
344 348 352 359 359 358 356 356 358 357 356 356 356 354 354 355 354 355 354 355 354 354 354 354 358 358 359 358 358 358 358 356 349 346 346 345 342 347 348 352 357 359 356
347 348 350 357 359 358 358 357 356 356 355 355 354 355 355 355 355 355 355 356 357 357 357 357 358 358 357 357 358 358 358 357 353 347 347 345 347 350 352 354 355 360 357
350 349 350 351 354 357 357 356 356 356 355 355 353 350 351 354 356 357 357 358 358 359 359 359 359 358 357 358 358 357 356 352 345 349 349 348 352 353 353 355 355 358 359
348 349 348 349 350 349 351 358 357 356 354 349 348 343 342 343 352 353 347 351 356 353 355 356 356 354 351 350 348 349 351 346 339 343 346 347 354 353 355 357 356 355 359
344 344 345 345 344 344 346 350 354 353 349 346 338 339 328 321 322 327 341 343 344 344 346 347 348 346 344 338 339 343 336 321 322 331 343 349 350 351 354 356 357 355 356
338 341 340 341 341 340 347 343 337 340 334 323 323 322 318 319 326 326 328 340 339 340 337 338 339 338 331 319 318 326 317 316 315 319 328 339 341 343 345 348 349 353 356
338 340 341 339 339 337 335 335 332 334 328 320 322 321 320 319 318 321 321 320 320 329 320 322 321 321 319 318 319 318 318 317 316 316 320 334 338 338 341 344 345 343 344
333 336 341 340 337 333 331 331 331 330 323 321 320 320 320 320 319 318 320 320 320 321 319 319 319 320 319 319 318 319 318 318 317 318 318 333 336 335 335 335 341 341 340
325 322 325 329 327 324 324 322 320 325 323 322 322 321 319 319 320 320 319 320 320 319 319 319 320 320 319 319 320 319 318 318 318 318 316 328 333 333 333 334 337 339 339
319 319 321 322 320 320 319 319 318 319 320 321 323 321 323 322 319 320 321 321 321 321 322 322 321 320 319 318 318 318 318 317 317 316 317 317 327 332 331 330 331 332 335
320 320 321 320 320 319 320 320 323 321 323 321 322 325 325 321 320 321 321 319 318 320 318 318 318 317 315 316 315 316 316 315 316 315 316 316 318 325 327 328 329 330 331
320 320 321 324 318 318 319 322 322 324 325 324 324 322 321 319 317 315 314 313 315 315 314 314 313 312 311 310 310 311 312 313 314 315 316 316 315 316 320 325 327 329 330
321 321 321 322 320 321 322 323 326 325 322 320 318 316 316 316 316 312 312 311 311 310 309 309 308 307 306 307 308 309 309 309 310 312 313 314 314 315 315 320 322 324 326
320 317 319 322 321 323 325 327 326 322 318 317 317 315 314 314 314 310 309 308 308 306 306 306 304 305 305 305 306 306 306 307 308 309 310 312 311 312 312 312 312 315 322
319 319 320 321 323 327 327 324 322 318 316 313 313 314 313 311 310 308 306 306 305 304 303 304 303 302 302 303 302 301 302 305 305 305 306 306 307 309 309 311 311 312 315
320 324 322 321 319 319 319 318 318 317 316 312 310 310 309 308 307 307 305 304 303 302 301 301 300 300 300 302 301 301 297 301 302 304 305 306 305 308 309 309 310 310 311
323 320 317 316 315 314 313 313 313 313 310 308 307 305 305 306 305 305 304 303 302 300 299 302 303 302 300 303 304 302 298 297 299 305 306 305 304 305 306 307 308 309 309
319 318 316 314 312 312 311 310 310 309 304 303 302 302 302 303 303 304 304 303 301 301 301 303 305 303 302 300 302 304 304 303 297 295 303 303 305 306 307 306 306 307 308
316 313 311 310 309 309 309 309 309 301 301 300 299 298 298 300 301 302 303 302 303 303 302 303 303 303 303 301 301 301 301 301 302 298 296 300 303 304 305 307 306 305 306
311 309 308 307 306 306 306 308 302 298 297 296 296 296 297 297 300 301 302 303 303 303 303 303 304 303 303 302 302 301 300 299 299 299 298 298 298 301 305 306 306 306 305
Wind_Speed
3 5 7 7 8 10 12 11 11 12 12 12 12 11 10 9 9 10 10 9 9 8 8 8 7 6 6 5 5 4 4 4 4 4 4 4 5 7 7 6 6 4 9
6 4 6 7 9 11 11 12 12 11 10 10 11 11 9 9 8 8 7 7 6 6 5 5 4 4 3 3 2 2 1 1 1 1 2 3 4 5 6 7 6 6 9
6 4 5 8 10 11 11 11 10 10 9 9 9 9 8 7 7 6 5 4 4 4 4 3 2 3 3 3 3 3 4 4 4 4 5 3 4 8 9 10 10 9 11
7 5 5 10 10 12 11 10 9 9 8 8 8 7 7 6 6 5 4 3 2 1 1 1 2 3 4 5 6 6 6 7 8 8 4 4 6 10 13 13 11 12 13
6 5 6 10 10 11 11 10 9 8 7 7 6 6 5 4 3 2 1 1 2 3 4 5 5 5 6 7 7 7 8 9 10 9 5 5 5 9 13 14 15 15 16
7 6 7 9 10 11 10 10 8 8 7 6 5 4 4 3 2 0 1 2 4 5 6 7 7 7 8 9 8 8 9 11 12 6 5 6 6 11 15 15 17 18 17
6 6 7 9 9 9 10 9 8 7 6 5 4 3 2 2 1 2 4 4 5 7 7 9 8 7 8 9 10 10 10 13 8 6 6 6 7 12 14 15 15 19 19
8 6 6 9 8 8 9 8 7 7 6 5 4 1 1 2 2 4 4 5 6 7 8 9 8 8 8 9 9 10 11 13 8 6 7 6 11 15 18 15 14 18 20
6 7 6 6 8 9 8 8 7 6 6 5 4 3 3 1 2 3 4 5 6 7 8 8 8 9 9 9 9 9 10 12 6 5 7 6 12 15 17 17 15 17 21
6 6 6 5 5 5 4 7 7 6 6 5 5 5 7 9 8 5 4 3 4 6 5 6 6 5 5 5 7 6 6 10 6 6 5 6 14 17 17 17 17 17 19
5 4 5 6 6 5 5 5 5 5 5 5 5 6 6 4 4 4 4 4 4 4 4 4 4 3 4 5 7 7 7 3 4 4 3 13 17 18 17 16 17 17 18
5 4 5 6 7 6 4 4 3 2 1 2 2 3 3 3 2 2 1 5 6 6 7 8 7 7 5 3 4 7 3 4 4 5 4 14 17 18 19 16 14 15 16
8 5 7 6 7 7 4 3 1 1 1 0 2 2 1 0 1 2 2 3 3 5 4 5 6 4 5 4 4 4 5 5 3 4 7 15 15 20 21 17 14 15 17
9 9 8 7 7 7 4 4 4 3 2 2 3 3 2 1 3 3 3 4 4 3 5 4 3 6 6 6 6 6 6 5 4 3 6 16 17 18 18 22 20 18 18
8 8 9 7 7 6 6 4 4 4 4 4 3 4 2 3 4 5 5 5 5 5 4 5 5 5 6 6 6 6 7 6 6 4 4 16 16 19 24 26 25 24 21
8 9 8 8 7 8 6 6 4 3 4 2 3 3 4 3 3 4 4 4 4 4 4 4 4 4 4 5 7 6 7 6 7 6 5 7 19 21 23 24 25 27 26
10 9 9 9 8 8 8 6 4 2 2 2 4 6 8 6 5 5 4 4 4 4 6 5 5 4 5 6 8 9 9 10 10 11 9 9 10 16 20 22 24 24 23
14 15 13 11 10 9 8 5 3 4 4 5 6 4 6 5 6 5 4 5 5 5 4 5 4 5 4 5 5 7 7 8 11 12 11 9 5 7 12 18 20 21 22
19 17 14 11 11 9 7 5 5 7 6 5 5 4 6 6 7 5 4 4 5 4 4 4 3 3 5 7 9 9 9 9 11 11 13 12 10 7 4 8 15 18 19
13 7 5 3 6 6 6 6 5 7 6 5 4 6 7 6 8 6 4 4 4 3 4 5 5 3 6 8 10 11 10 9 10 9 9 8 6 6 6 7 6 7 18
6 7 5 8 6 5 4 4 4 4 3 4 4 7 6 5 5 4 3 4 5 5 5 6 4 6 7 5 7 7 6 11 10 7 4 4 7 7 6 5 5 5 5
7 9 10 10 9 7 4 3 3 3 3 4 4 5 6 6 6 7 5 4 5 4 6 5 5 6 4 4 5 10 6 5 3 5 7 5 7 5 6 7 6 9 7
11 10 11 11 11 9 7 4 4 4 3 3 3 2 4 7 6 6 5 4 5 4 4 6 6 7 8 6 6 5 5 3 8 6 5 8 5 8 8 5 8 9 10
12 11 12 12 12 10 7 7 10 4 3 3 3 4 5 6 7 7 6 6 6 4 6 7 8 8 8 9 7 6 9 9 5 6 3 10 10 8 8 9 6 9 9
13 12 11 12 12 10 11 10 6 4 2 2 3 6 6 7 7 7 7 7 7 6 7 10 11 10 8 8 8 7 8 8 10 9 10 9 9 8 8 8 8 7 10
12 12 10 12 11 10 11 9 6 6 3 4 6 5 5 4 6 6 8 8 9 9 9 10 11 11 10 10 9 9 8 7 6 6 6 9 13 8 8 9 6 8 8
Wind_Direction
218 199 173 148 125 110 107 102 98 97 98 98 97 97 98 95 94 94 93 88 85 81 79 77 75 75 76 73 75 76 77 84 94 106 130 150 163 167 171 170 171 165 167
141 176 156 132 123 116 114 115 116 111 108 109 111 112 106 101 97 95 92 87 81 82 79 74 73 74 71 70 64 52 51 75 140 184 203 207 210 212 214 208 204 186 192
133 162 141 133 125 119 115 114 113 109 110 112 113 112 106 100 100 96 92 89 74 70 60 48 35 22 8 357 346 326 309 297 285 270 260 245 238 243 235 233 228 212 207
145 153 145 139 132 125 119 118 119 120 117 117 119 119 120 123 122 124 133 118 89 50 32 1 343 334 332 325 315 309 304 300 297 293 287 265 261 263 245 239 238 211 212
134 147 153 131 124 123 122 120 117 118 120 121 117 123 131 128 125 149 133 30 350 331 316 310 308 313 305 294 298 299 300 298 294 291 275 262 261 269 265 238 229 219 216
141 141 134 125 120 124 124 123 120 119 117 112 113 124 118 127 161 260 359 311 303 301 302 303 305 305 303 305 296 290 289 292 297 285 276 273 268 264 276 263 244 223 214
142 137 128 123 122 123 121 118 114 112 111 113 109 104 122 178 262 293 278 283 292 297 302 304 307 303 299 300 301 299 295 297 296 272 267 258 255 259 263 271 274 221 217
139 130 125 131 130 130 130 129 129 131 132 120 119 110 277 258 251 260 278 290 301 302 302 310 308 306 301 300 300 300 300 308 308 281 274 266 267 268 276 265 259 231 224
135 125 129 138 147 143 140 139 140 142 134 120 84 30 20 338 245 257 292 310 313 310 304 305 310 311 316 311 304 305 312 324 318 285 282 277 274 277 284 280 264 241 228
143 146 152 153 142 141 144 150 148 143 131 108 77 70 65 54 77 73 31 359 338 340 336 320 322 320 331 337 337 327 327 334 316 298 288 281 284 290 294 286 275 272 239
144 156 158 151 154 153 154 161 155 152 134 105 84 89 72 69 62 63 41 37 40 7 347 324 302 307 335 339 327 317 343 320 311 292 274 286 298 303 300 290 280 270 264
163 186 188 165 158 156 158 148 162 193 129 139 143 142 128 142 161 167 358 4 357 348 340 336 320 312 323 306 303 312 312 306 292 282 269 293 304 309 311 309 309 300 268
174 184 190 179 166 165 164 164 181 204 179 249 197 153 189 70 326 351 333 327 324 314 316 314 308 293 293 288 291 280 282 278 273 277 284 301 300 306 306 305 317 320 318
174 191 190 202 176 175 156 177 186 194 208 226 230 213 214 275 281 278 271 265 272 270 282 281 293 292 292 291 283 282 279 276 260 259 275 289 296 301 303 307 305 308 307
175 189 203 195 194 172 164 182 191 192 204 231 236 239 229 292 302 323 318 335 336 341 336 325 315 309 306 312 309 298 296 290 288 280 277 290 297 297 298 296 296 300 302
171 185 171 187 193 155 160 170 179 187 218 226 269 346 347 316 315 319 323 337 343 343 335 327 322 317 312 315 307 302 296 294 282 277 272 282 288 292 294 293 295 293 293
183 170 172 182 172 158 167 162 167 184 99 17 29 31 48 43 40 32 26 4 336 328 325 325 322 320 317 318 311 311 304 299 295 292 291 286 287 283 289 294 295 291 288
173 182 181 182 175 167 164 163 113 76 74 73 77 65 51 44 36 20 8 349 340 343 348 349 340 326 317 308 300 297 287 291 291 291 286 280 273 290 288 292 294 295 294
184 185 182 188 168 161 145 107 81 79 68 62 60 49 31 30 27 30 18 360 352 348 350 336 327 314 321 317 307 304 292 283 281 280 279 282 290 288 287 309 310 306 304
182 152 177 126 129 124 96 88 82 80 66 59 50 37 30 26 25 25 13 359 348 346 347 345 331 318 309 305 306 298 287 276 276 276 282 285 298 298 291 299 292 290 300
105 98 103 99 59 70 68 95 72 78 77 48 44 46 41 32 23 20 357 356 355 1 335 318 300 307 314 301 304 300 287 272 263 269 296 298 286 284 280 284 300 287 302
86 82 76 78 72 62 65 67 89 107 85 82 52 38 26 16 357 354 344 344 344 319 311 301 296 303 291 289 293 295 309 306 10 320 308 298 293 302 301 300 309 301 305
89 92 88 80 75 65 54 55 52 50 40 21 18 12 352 352 343 335 326 305 285 280 280 278 276 282 303 298 271 278 309 289 335 264 300 283 303 296 291 283 290 297 295
99 91 83 78 74 63 51 61 54 18 38 5 342 334 330 333 330 321 301 295 285 282 287 305 311 301 300 295 290 262 265 280 294 300 250 299 285 282 303 291 283 283 289
100 95 89 85 75 66 63 63 48 64 52 337 328 346 347 330 308 304 314 309 307 314 312 308 303 295 287 282 279 283 277 274 265 260 285 289 295 292 292 287 297 267 286
90 85 78 77 70 65 65 49 57 63 16 18 5 345 324 298 301 312 313 318 317 308 306 306 301 294 291 283 279 276 271 273 276 276 276 275 288 296 292 291 279 280 277